User: anonymous   Login
Location: Unspecified
(0.0000°N, 0.0000°E)
Time: 18:56:56
(UTC+00:00)
Language:

Picosat 9 - Orbit

View from above orbital plane
View from above orbital plane
View from above satellite
View from above satellite

Ground track
Ground track

The orbit data is extracted from the following two-line orbital elements,

1 26930U 01043B   19077.75108216 -.00000048  00000-0  13697-4 0  9995
2 26930  67.0014 195.4987 0007824 236.0057 124.0301 14.30689566912097
Epoch (UTC): 18 March 2019 18:01:33
Eccentricity: 0.0007824
inclination: 67.0014°
perigee height: 784 km
apogee height: 795 km
right ascension of ascending node: 195.4987°
argument of perigee: 236.0057°
revolutions per day: 14.30689566
mean anomaly at epoch: 124.0301°
orbit number at epoch: 91209

The dashed part of the orbit path shows where the satellite is in the earth's shadow,  

DLR